Погода в Халапе

Гватемала     14°38′01″N   89°59′28″W
темп.,
°C
ветер,
м/с
пор.,
м/с
влажн.,
%
обл.,
%
осадки,
мм/ч
давл.,
гПа
погр.,
м
9 августа, вт
вт900:00+16зсз119899 0.9 101731
03:00+15зсз1299100 0.0 101680
06:00+16зсз1299100 0.0 1017150
09:00+19сз2288100 0.0 1018507
12:00+24ссв226945 0.3 10151093
15:00+22св228697 2.8 1013707
18:00+19всв229698 5.9 101575
21:00+17в129961 2.9 101741
10 августа, ср
ср1000:00+16юв119940 4.0 101713
03:00+16з019974 0.3 101623
06:00+17з119958 0.4 101748
09:00+20сз229071 0.0 1017423
12:00+24ссв227130 0.3 1015985
15:00+23св228463 2.7 1013667
18:00+20всв1297100 5.6 1015103
21:00+17в1198100 3.1 101737
11 августа, чт
чт1100:00+17юв2298100 5.0 101864
03:00+17зюз129796 1.4 101637
06:00+16зюз119621 1.4 101611
09:00+21с118246 0.0 1017464
12:00+24ссв227210 0.5 1015850
15:00+24св227534 1.6 1013904
18:00+20всв2292100 4.2 101427
21:00+17юв119699 4.3 101725
12 августа, пт
пт1200:00+18ссв119488 5.6 101711
03:00+16зсз119814 0.0 101612
06:00+16з119822 0.0 101713
09:00+20ссз228664 0.0 1017527
12:00+24ссв226781 0.3 10151143
15:00+24всв226931 0.9 10131160
18:00+20всв1194100 1.8 101422
21:00+18юв1196100 0.7 101712
13 августа, сб
сб1300:00+17з1197100 0.7 101712
03:00+16з119863 0.0 101621
06:00+16з229882 0.0 101769
09:00+20сз228134 0.0 1017455
12:00+25ссв215895 0.0 10151037
15:00+25всв226289 0.0 1013906
18:00+20вюв228797 0.3 101417
21:00+17вюв119393 0.0 101613